Location: Chevoux
(46.3801°N, 4.9476°E)
Time: 04:57:07
(UTC+00:00)

Envisat - Pass Details

Date: 02 December 2021
Orbit: 764 x 766 km, 98.2° (Epoch: 16 January)

Event Time Altitude Azimuth Distance (km) Brightness Sun altitude
Rises 16:22:46 0° 186° (S) 3,219 6.7 -5.0°
Reaches altitude 10° 16:25:12 10° 194° (SSW) 2,298 6.1 -5.4°
Maximum altitude 16:29:55 39° 263° (W) 1,147 4.7 -6.1°
Drops below altitude 10° 16:34:41 10° 332° (NNW) 2,314 5.5 -6.9°
Sets 16:37:09 0° 340° (NNW) 3,245 6.2 -7.3°
